Погода в Иваньково-Ленином

Россия / Чувашская Республика     54°43′02″N   46°41′17″E
темп.,
°C
ветер,
м/с
пор.,
м/с
влажн.,
%
обл.,
%
осадки,
мм/ч
давл.,
гПа
погр.,
м
12 апреля, пн
пн1200:00+4св2896100 3.1 1033277
03:00+3св3994100 5.5 1035328
06:00+4св41291100 0.1 1035345
09:00+7всв498696 0.2 1036390
12:00+10в588299 0.0 1035509
15:00+12в5780100 0.0 1035583
18:00+9в3892100 0.0 1035296
21:00+7в399662 0.0 1035225
13 апреля, вт
вт1300:00+7вюв399881 0.0 1035198
03:00+8юв3798100 0.0 1035216
06:00+8юв3597100 0.0 1035196
09:00+12ююв367940 0.0 1034331
12:00+17ююв475475 0.0 1033887
15:00+18ююв46456 0.0 10321168
18:00+14юв24665 0.0 103161
21:00+10юв22765 0.0 103116
14 апреля, ср
ср1400:00+8ююв22805 0.0 103114
03:00+7юв22778 0.0 103112
06:00+6юв22746 0.0 103022
09:00+12юв36535 0.0 1029352
12:00+16ююв464517 0.0 1027888
15:00+17ююв46475 0.0 10261174
18:00+14юв25660 0.0 1024106
21:00+10юв22810 0.0 102438
15 апреля, чт
чт1500:00+9юв22880 0.0 102413
03:00+8юв22890 0.0 102310
06:00+8ююв12900 0.0 102316
09:00+13ююв23680 0.0 1022396
12:00+17ю23505 0.0 10201230
15:00+18ююз234275 0.0 10191662
18:00+15сз115396 0.0 101911
21:00+11св116694 0.0 101910
16 апреля, пт
пт1600:00+10всв117177 0.0 101810
03:00+8св117817 0.0 101810
06:00+8ссв11796 0.0 101810
09:00+15с23577 0.0 1018433
12:00+18с334162 0.0 10181682
15:00+18ссв544366 0.0 10181907
18:00+13св6106651 0.0 1020715
21:00+7св512766 0.0 1024661